Angel Fire, NM

3:40 AM MST on December 06, 2019 (GMT -0700)
Angel Fire

Weather History for KAXX - October, 2019

Change the Weather History Date:

Friday, October 4, 2019

  Actual Average (WUND) Record (WUND)
Temperature  
Mean Temperature 41 °F -  
Max Temperature 55 °F - - (-1)
Min Temperature 27 °F - - (-1)
Degree Days  
Heating Degree Days 24    
Moisture  
Dew Point 40 °F    
Average Humidity 87    
Maximum Humidity 97    
Minimum Humidity 68    
Precipitation  
Precipitation 0.38 in - - ()
Sea Level Pressure  
Sea Level Pressure 30.32 in    
Wind  
Wind Speed 3 mph (SW)    
Max Wind Speed 14 mph    
Max Gust Speed 25 mph    
Visibility 8 miles    
Events Fog , Rain    
Averages and records for this station are not official NWS values.
T = Trace of Precipitation, MM = Missing Value Source: NWS Daily Summary

Daily Weather History Graph

Daily Weather History Graph

Search for Another Location

Airport or City:

Astronomy

Oct. 04, 2019 Rise Set
Actual Time 6:58 AM MDT 6:40 PM MDT
Civil Twilight 6:32 AM MDT 7:06 PM MDT
Nautical Twilight 6:03 AM MDT 7:35 PM MDT
Astronomical Twilight 5:33 AM MDT 8:05 PM MDT
Moon 1:23 PM MDT (10/4) 11:20 PM MDT (10/4)
Length of Visible Light 12h 33m
Length of Day
11h 41m
Waxing Crescent, 40% of the Moon is Illuminated
Oct 4
Waxing Crescent
Oct 5
First Quarter
Oct 13
Full
Oct 21
Last Quarter
Oct 27
New

Hourly Weather History & Observations

Time (MDT) Temp. Windchill Dew Point Humidity Pressure Visibility Wind Dir Wind Speed Gust Speed Precip Events Conditions
12:15 AM 31.6 °F 28.3 °F 29.5 °F 92% 30.39 in 10.0 mi SE 3.5 mph - N/A   Clear
12:35 AM 30.0 °F - 28.0 °F 92% 30.39 in 10.0 mi Calm Calm - N/A   Clear
12:55 AM 30.4 °F - 29.1 °F 95% 30.39 in 10.0 mi Calm Calm - N/A   Clear
1:15 AM 29.5 °F - 27.7 °F 93% 30.39 in 10.0 mi Calm Calm - N/A   Clear
1:35 AM 31.1 °F - 29.1 °F 92% 30.39 in 10.0 mi Calm Calm - N/A   Clear
1:55 AM 29.5 °F 25.9 °F 27.3 °F 92% 30.39 in 10.0 mi South 3.5 mph - N/A   Scattered Clouds
2:15 AM 28.8 °F - 27.3 °F 94% 30.38 in 10.0 mi Calm Calm - N/A   Clear
2:35 AM 28.9 °F 25.2 °F 26.8 °F 92% 30.38 in 10.0 mi SSW 3.5 mph - N/A   Clear
2:55 AM 28.2 °F - 25.9 °F 91% 30.38 in 10.0 mi Calm Calm - N/A   Clear
3:15 AM 31.3 °F - 30.2 °F 96% 30.37 in 2.0 mi Calm Calm - N/A   Mostly Cloudy
3:35 AM 29.3 °F - 27.7 °F 94% 30.37 in 2.5 mi Calm Calm - N/A   Overcast
3:55 AM 27.7 °F - 26.1 °F 94% 30.36 in 10.0 mi Calm Calm - N/A   Mostly Cloudy
4:15 AM 31.3 °F - 29.7 °F 94% 30.36 in 3.0 mi Calm Calm - N/A   Mostly Cloudy
4:35 AM 28.0 °F - 27.0 °F 96% 30.36 in 7.0 mi Calm Calm - N/A   Overcast
4:55 AM 30.9 °F - 29.8 °F 96% 30.36 in 0.2 mi Calm Calm - N/A Fog Light Freezing Fog
5:15 AM 30.2 °F - 29.3 °F 96% 30.36 in 5.0 mi Calm Calm - N/A   Overcast
5:35 AM 30.6 °F 27.1 °F 29.8 °F 97% 30.36 in 2.5 mi WNW 3.5 mph - N/A   Mostly Cloudy
5:55 AM 31.5 °F - 30.7 °F 97% 30.36 in 2.0 mi Calm Calm - N/A   Overcast
6:15 AM 32.9 °F 28.5 °F 32.2 °F 97% 30.36 in 10.0 mi SSE 4.6 mph - N/A   Overcast
6:35 AM 33.3 °F 30.2 °F 32.4 °F 96% 30.38 in 10.0 mi West 3.5 mph - N/A   Light Drizzle
6:55 AM 35.6 °F 27.5 °F 34.7 °F 97% 30.38 in 7.0 mi SE 11.5 mph - N/A Rain Light Rain
7:15 AM 40.6 °F 37.5 °F 39.7 °F 97% 30.39 in 4.0 mi SSE 4.6 mph - 0.02 in Rain Rain
7:30 AM 41.2 °F - 40.3 °F 97% 30.39 in 7.0 mi Calm Calm - 0.03 in Rain Rain
7:55 AM 38.8 °F - 37.6 °F 95% 30.38 in 3.0 mi Calm Calm - 0.06 in Rain Light Rain
8:15 AM 38.7 °F - 37.6 °F 96% 30.37 in 5.0 mi Calm Calm - N/A Rain Light Rain
8:35 AM 39.9 °F - 38.8 °F 96% 30.37 in 4.0 mi Calm Calm - 0.02 in Rain Rain
8:55 AM 40.1 °F 36.1 °F 39.2 °F 97% 30.37 in 7.0 mi NE 5.8 mph - 0.02 in Rain Light Rain
9:15 AM 41.9 °F - 41.0 °F 97% 30.37 in 7.0 mi Calm Calm - N/A Rain Light Rain
9:35 AM 42.4 °F - 41.4 °F 96% 30.38 in 2.5 mi Calm Calm - 0.04 in Rain Rain
9:55 AM 42.3 °F - 41.2 °F 96% 30.39 in 2.5 mi Calm Calm - 0.10 in Rain Rain
10:15 AM 45.7 °F 42.7 °F 44.8 °F 97% 30.37 in 3.0 mi SE 5.8 mph - 0.04 in Rain Rain
10:35 AM 48.6 °F - 46.0 °F 91% 30.37 in 7.0 mi South 4.6 mph - 0.05 in Rain Light Rain
10:55 AM 48.6 °F - 45.1 °F 88% 30.36 in 7.0 mi Calm Calm - 0.07 in Rain Light Rain
11:15 AM 50.0 °F - 46.4 °F 87% 30.35 in 10.0 mi South 4.6 mph - N/A   Overcast
11:35 AM 51.4 °F - 47.5 °F 86% 30.35 in 7.0 mi West 4.6 mph - N/A Rain Light Rain
11:55 AM 52.9 °F - 48.4 °F 85% 30.33 in 10.0 mi SW 8.1 mph - 0.01 in   Mostly Cloudy
12:15 PM 54.5 °F - 49.5 °F 83% 30.32 in 7.0 mi SW 11.5 mph 17.3 mph N/A Rain Light Rain
12:35 PM 53.8 °F - 48.4 °F 82% 30.31 in 7.0 mi WSW 9.2 mph - N/A Rain Light Rain
12:55 PM 52.0 °F - 47.7 °F 85% 30.31 in 7.0 mi West 9.2 mph - N/A Rain Light Rain
1:15 PM 48.6 °F - 44.2 °F 85% 30.33 in 2.5 mi SW 8.1 mph 25.3 mph 0.04 in Rain Rain
1:35 PM 48.4 °F - 45.1 °F 89% 30.32 in 10.0 mi South 11.5 mph - 0.05 in Rain Light Rain
1:55 PM 47.3 °F - 44.2 °F 89% 30.33 in 4.0 mi SW 6.9 mph - 0.09 in Rain Heavy Rain
2:15 PM 47.8 °F - 44.6 °F 89% 30.31 in 4.0 mi SW 11.5 mph 20.7 mph 0.03 in Rain Rain
2:35 PM 50.0 °F - 45.9 °F 86% 30.29 in 10.0 mi South 3.5 mph - 0.03 in Rain Light Rain
2:55 PM 50.2 °F - 44.8 °F 82% 30.29 in 10.0 mi Calm Calm - 0.03 in   Overcast
3:15 PM 50.9 °F - 46.0 °F 83% 30.29 in 10.0 mi SSW 4.6 mph - N/A   Overcast
3:35 PM 52.5 °F - 46.6 °F 80% 30.28 in 10.0 mi West 5.8 mph - N/A   Mostly Cloudy
3:55 PM 53.1 °F - 45.9 °F 77% 30.27 in 10.0 mi South 5.8 mph - N/A   Scattered Clouds
4:15 PM 54.3 °F - 46.2 °F 74% 30.25 in 10.0 mi SSW 8.1 mph - N/A   Scattered Clouds
4:35 PM 54.9 °F - 46.4 °F 73% 30.25 in 10.0 mi WSW 8.1 mph - N/A   Clear
4:55 PM 55.6 °F - 45.1 °F 68% 30.25 in 10.0 mi WSW 5.8 mph - N/A   Clear
5:15 PM 55.0 °F - 45.1 °F 69% 30.25 in 10.0 mi WSW 11.5 mph - N/A   Mostly Cloudy
5:35 PM 55.4 °F - 45.3 °F 69% 30.24 in 10.0 mi SSW 10.4 mph - N/A   Scattered Clouds
5:55 PM 53.4 °F - 45.9 °F 76% 30.24 in 10.0 mi West 9.2 mph - N/A   Mostly Cloudy
6:15 PM 52.0 °F - 45.5 °F 79% 30.24 in 10.0 mi West 8.1 mph - N/A   Scattered Clouds
6:35 PM 50.5 °F - 45.1 °F 82% 30.24 in 10.0 mi WSW 5.8 mph - N/A   Clear
6:55 PM 49.1 °F - 44.6 °F 84% 30.25 in 10.0 mi Calm Calm - N/A   Clear
7:15 PM 49.1 °F - 44.6 °F 84% 30.25 in 10.0 mi Calm Calm - N/A   Clear
7:35 PM 47.8 °F - 44.4 °F 88% 30.25 in 10.0 mi Calm Calm - N/A   Clear
7:55 PM 46.9 °F - 44.1 °F 90% 30.26 in 10.0 mi Calm Calm - N/A   Clear
8:15 PM 49.1 °F - 44.8 °F 85% 30.26 in 10.0 mi Calm Calm - N/A   Clear
8:35 PM 49.1 °F - 44.8 °F 85% 30.26 in 10.0 mi WSW 8.1 mph - N/A   Clear
8:55 PM 49.5 °F - 44.4 °F 83% 30.26 in 10.0 mi WSW 4.6 mph - N/A   Clear
9:15 PM 49.3 °F - 44.1 °F 82% 30.26 in 10.0 mi WSW 11.5 mph 16.1 mph N/A   Clear
9:35 PM 49.5 °F - 43.3 °F 79% 30.27 in 10.0 mi Calm Calm - N/A   Clear
9:55 PM 49.8 °F - 43.2 °F 78% 30.27 in 10.0 mi West 4.6 mph - N/A   Clear
10:15 PM 48.9 °F - 42.8 °F 79% 30.27 in 10.0 mi Calm Calm - N/A   Clear
10:35 PM 49.3 °F - 43.3 °F 80% 30.27 in 10.0 mi West 9.2 mph - N/A   Clear
10:55 PM 50.0 °F - 43.0 °F 77% 30.27 in 10.0 mi West 13.8 mph - N/A   Clear
11:15 PM 49.6 °F - 42.8 °F 77% 30.28 in 10.0 mi West 11.5 mph - N/A   Clear
11:35 PM 49.1 °F - 42.3 °F 77% 30.28 in 10.0 mi South 3.5 mph 17.3 mph N/A   Clear
11:55 PM 48.4 °F - 42.3 °F 79% 30.28 in 10.0 mi Calm Calm - N/A   Clear